Regional Weather Roundup
Issued by NWS Nashville, TN

Home | Current Version | Previous Version | Text Only | Print | Product List | Glossary On
Versions: 1 2 3 4 5 6 7 8 9 10 11 12 13 14 15 16 17 18 19 20 21 22 23 24 25 26 27 28 29 30 31 32 33 34 35 36 37 38 39 40 41 42 43 44 45 46 47 48 49 50
000
ASUS44 KOHX 010715
RWROHX
MIDDLE TENNESSEE HOURLY WEATHER ROUNDUP
NATIONAL WEATHER SERVICE NASHVILLE TN
200 AM CDT MON SEP 01 2014

NOTE: "FAIR" INDICATES FEW OR NO CLOUDS BELOW 12,000 FEET WITH
NO SIGNIFICANT WEATHER AND/OR OBSTRUCTIONS TO VISIBILITY.

* THESE REPORTS ARE NOT UNDER NWS QUALITY CONTROL AND MAY NOT
  REPORT WEATHER SUCH AS PRECIPITATION AND FOG.


TNZ005>011-023>034-057-059-062>066-078-080-010800
...NORTHERN MIDDLE TENNESSEE...

CITY           SKY/WX    TMP DP  RH WIND       PRES   REMARKS
CLARKSVILLE    CLEAR     73  71  93 S5        30.02S
CROSSVILLE     PTCLDY    68  65  90 CALM      30.14S
GALLATIN         N/A     72  72 100 CALM      30.06S
DICKSON        CLEAR     72  72 100 S7        30.04S
LEBANON        CLEAR     73  70  91 S5        30.04S
LIVINGSTON     PTCLDY    70  68  93 VRB3      30.10R
NASHVILLE      CLEAR     74  72  93 CALM      30.05S
WEST NASHVILLE   N/A     73  73 100 S3        30.04R
PORTLAND       CLEAR     72  70  94 S5        30.04S
SMYRNA         CLEAR     72  71  96 S6        30.06S
SPARTA         CLEAR     68  66  94 CALM      30.08S
$$
TNZ056-058-060-061-075>077-079-093>097-010800
...SOUTHERN MIDDLE TENNESSEE...

CITY           SKY/WX    TMP DP  RH WIND       PRES   REMARKS
COLUMBIA         N/A     73  73 100 S5        30.04S
FAYETTEVILLE   CLEAR     70  70 100 S7        30.08S
LEWISBURG      MOCLDY    71  69  93 CALM      30.06R
MCMINNVILLE    CLEAR     70  70 100 CALM      30.09S
MURFREESBORO   CLEAR     73  71  93 S5        30.05S
SHELBYVILLE    PTCLDY    73  72  94 S3        30.08S
TULLAHOMA      PTCLDY    70  68  94 CALM      30.10S
WINCHESTER     CLEAR     72  70  94 SE3       30.09S
$$


...KEY TO REMARKS...
VSB - VISIBILITY IN MILES
WCI - WIND CHILL INDEX
HX  - HEAT INDEX




USA.gov is the U.S. government's official web portal to all federal, state and local government web resources and services.